GW1279 Weather Reports


time (UTC)temp
C
wind
direction
speed
KPH
gust
KPH
rain 1hr
cm
rain 24hr
cm
rain mn
cm
humidity
%
barometer
mb
20260505183030 21 243 4.8 17.7 0.00 0.03 0.00 54 1005.2
20260505181531 21 0 4.8 20.9 0.00 0.03 0.00 53 1005.1
20260505180042 22 0 0.0 19.3 0.00 0.03 0.00 52 1005.3
20260505174602 22 0 3.2 29.0 0.00 0.03 0.00 51 1005.6
20260505173027 22 0 0.0 12.9 0.00 0.03 0.00 55 1005.9
20260505171532 21 190 4.8 19.3 0.00 0.03 0.00 53 1005.8
20260505170032 20 210 4.8 24.1 0.00 0.03 0.00 55 1006.1
20260505164530 20 0 0.0 14.5 0.00 0.03 0.00 57 1006.4
20260505163030 18 0 0.0 16.1 0.00 0.03 0.00 61 1006.6
20260505161530 18 184 0.0 19.3 0.00 0.03 0.00 59 1007.0
20260505153031 20 0 3.2 12.9 0.00 0.03 0.00 56 1006.9
20260505151531 19 178 0.0 8.0 0.00 0.03 0.00 60 1006.9
20260505124530 15 0 4.8 12.9 0.00 0.03 0.00 63 1007.5
20260505123050 14 0 0.0 12.9 0.00 0.03 0.00 66 1007.6
20260505121528 13 214 3.2 17.7 0.00 0.03 0.00 67 1007.8
20260505120030 13 200 3.2 19.3 0.00 0.03 0.00 69 1008.0
20260505114527 12 0 3.2 17.7 0.00 0.03 0.00 71 1008.0
20260505113035 12 215 1.6 9.7 0.00 0.03 0.00 73 1007.9
20260505111549 11 0 0.0 14.5 0.00 0.03 0.00 75 1007.9
20260505101533 10 0 0.0 8.0 0.00 0.03 0.00 78 1007.8
20260505100034 9 205 0.0 8.0 0.00 0.03 0.00 78 1007.8
20260505094530 9 0 0.0 12.9 0.00 0.03 0.00 79 1007.7
20260505093031 9 0 0.0 12.9 0.00 0.03 0.00 79 1007.7
20260505091534 9 0 1.6 16.1 0.00 0.03 0.00 78 1007.7
20260505090033 9 0 0.0 9.7 0.00 0.03 0.00 78 1007.7
20260505084531 9 0 0.0 8.0 0.00 0.03 0.00 78 1007.6
20260505083040 9 207 0.0 9.7 0.00 0.03 0.00 78 1007.7
20260505081533 9 0 0.0 8.0 0.00 0.03 0.00 77 1007.7
20260505080036 10 0 0.0 8.0 0.00 0.03 0.00 77 1007.7
20260505074527 10 0 0.0 6.4 0.00 0.03 0.00 76 1007.7
20260505073027 10 0 0.0 8.0 0.00 0.03 0.00 76 1007.7
20260505071535 10 0 0.0 6.4 0.00 0.03 0.00 75 1007.7
20260505070033 10 0 0.0 6.4 0.00 0.03 0.00 74 1007.7
20260505064542 10 0 0.0 1.6 0.00 0.03 0.00 73 1007.6
20260505063031 10 0 0.0 9.7 0.00 0.03 0.00 73 1007.7
20260505061538 10 0 0.0 9.7 0.00 0.03 0.00 73 1007.5
20260505060031 10 0 0.0 9.7 0.00 0.03 0.00 74 1007.6
20260505054530 10 0 0.0 9.7 0.00 0.03 0.00 74 1007.6
20260505053030 10 207 1.6 8.0 0.00 0.03 0.00 76 1007.5
20260505051527 10 202 0.0 12.9 0.00 0.03 0.00 77 1007.4
20260505041532 9 209 0.0 8.0 0.00 0.03 0.00 79 1007.1
20260505040028 9 213 0.0 4.8 0.00 0.03 0.00 79 1007.0
20260505034533 9 0 0.0 0.0 0.00 0.03 0.03 79 1007.0
20260505033035 9 0 0.0 0.0 0.00 0.03 0.03 79 1007.0
20260505031531 8 0 0.0 0.0 0.00 0.03 0.03 80 1007.0
20260505030030 8 0 0.0 0.0 0.00 0.03 0.03 82 1007.0
20260505024539 8 0 0.0 0.0 0.00 0.03 0.03 84 1007.0
20260505023029 8 0 0.0 0.0 0.00 0.03 0.03 84 1007.0
20260505021537 8 0 0.0 0.0 0.00 0.03 0.03 85 1007.0
20260505020032 8 0 0.0 0.0 0.00 0.03 0.03 86 1006.9
20260505014536 8 0 0.0 0.0 0.00 0.03 0.03 87 1006.9
20260505013030 8 0 0.0 0.0 0.00 0.03 0.03 87 1006.6
20260505011527 9 0 0.0 0.0 0.00 0.03 0.03 86 1006.5
20260505010028 9 0 0.0 0.0 0.00 0.03 0.03 84 1006.4
20260505004531 10 0 0.0 0.0 0.00 0.03 0.03 81 1006.2
20260505003028 11 0 0.0 0.0 0.00 0.03 0.03 76 1005.8
20260505001534 11 0 0.0 0.0 0.00 0.03 0.03 73 1005.6
20260505000037 12 0 0.0 0.0 0.00 0.03 0.03 69 1005.5
20260504234528 13 0 0.0 0.0 0.00 0.03 0.03 66 1005.5
20260504233029 15 0 0.0 0.0 0.00 0.03 0.03 62 1005.2
20260504231540 16 0 0.0 0.0 0.00 0.03 0.03 57 1005.1
20260504230028 17 0 0.0 6.4 0.00 0.03 0.03 50 1005.0
20260504224528 17 0 0.0 4.8 0.00 0.03 0.03 48 1005.0
20260504223030 17 0 0.0 11.3 0.00 0.03 0.03 50 1004.8
20260504221530 17 0 1.6 12.9 0.00 0.03 0.03 48 1004.8
20260504220032 17 248 4.8 20.9 0.00 0.03 0.03 49 1004.8
20260504214531 16 246 1.6 14.5 0.00 0.03 0.03 53 1004.8
20260504213030 17 0 0.0 11.3 0.00 0.03 0.03 55 1004.9
20260504211530 17 319 3.2 12.9 0.00 0.03 0.03 55 1004.6
20260504210043 16 318 4.8 14.5 0.00 0.03 0.03 56 1004.6
20260504204528 16 0 1.6 6.4 0.00 0.03 0.03 59 1004.6
20260504203033 16 240 1.6 17.7 0.00 0.03 0.03 56 1004.4
20260504201529 16 280 1.6 19.3 0.00 0.03 0.03 58 1004.4
20260504200028 16 240 4.8 20.9 0.00 0.03 0.03 60 1004.5
20260504194542 16 299 4.8 19.3 0.00 0.05 0.03 61 1004.5
20260504193030 15 261 1.6 14.5 0.00 0.05 0.03 67 1004.6
20260504191535 13 258 0.0 11.3 0.03 0.05 0.03 77 1004.6
20260504190032 12 267 0.0 3.2 0.03 0.05 0.03 80 1004.7
20260504184537 11 0 0.0 0.0 0.03 0.10 0.03 82 1005.0